Theta_e
285 285 286 286 285 285 284 284 283 284 285 286 287 287 288 288 289 289 289 290 291 291 292 292 293 293 294
285 285 286 285 285 285 284 283 283 283 284 285 286 286 287 287 288 288 288 289 289 289 289 290 290 291 292
284 285 285 285 285 284 284 283 282 282 283 284 284 285 286 287 287 287 287 287 288 288 288 288 289 289 290
285 285 285 285 284 284 282 282 282 282 282 283 284 284 284 285 285 285 285 286 286 287 287 288 288 289 290
284 285 284 284 284 283 282 282 282 282 283 283 283 282 282 283 283 283 284 285 286 287 288 288 288 289 290
285 284 284 284 283 282 282 281 282 283 282 282 282 281 282 282 282 283 285 286 286 286 287 287 288 289 289
286 285 284 284 283 282 282 282 283 282 281 281 281 280 281 282 282 283 284 285 286 286 287 287 287 288 289
285 284 284 284 284 284 283 282 281 281 280 280 281 280 281 281 281 283 284 285 285 286 286 287 287 287 287
284 284 284 284 283 282 281 281 280 280 280 279 280 280 280 280 282 282 283 284 284 285 285 285 286 286 286
283 282 281 280 281 281 280 280 279 279 281 280 280 280 280 281 281 281 281 281 282 283 284 284 285 285 285
281 280 280 280 280 280 279 279 278 278 279 280 280 279 279 279 279 280 280 280 280 281 281 282 283 284 284
279 279 279 279 280 279 279 279 279 278 280 278 278 278 278 278 279 279 280 280 280 280 280 281 282 283 284
278 278 278 278 278 279 279 279 278 278 279 279 278 279 279 279 279 279 280 280 280 280 281 281 281 281 281
278 277 277 277 277 278 277 277 277 278 278 279 279 279 279 279 279 279 280 280 281 281 281 281 281 281 281
277 276 276 277 277 277 276 276 277 278 277 278 279 279 279 279 279 280 280 281 281 281 281 281 282 282 282
276 276 275 275 275 276 277 276 276 277 277 278 278 278 280 281 281 281 281 282 282 283 283 283 284 284 285
276 276 275 276 277 276 276 276 277 277 278 278 279 280 281 281 282 283 284 284 285 285 285 285 285 285 285
Wind_Speed
16 20 21 24 26 26 28 27 27 25 23 24 25 26 27 28 28 28 29 29 29 30 32 32 33 33 33
18 20 22 23 26 27 27 28 28 25 26 25 27 27 26 25 25 26 28 28 29 30 32 33 34 34 34
17 20 23 25 28 29 28 29 27 28 26 26 25 24 23 25 27 28 28 29 29 31 32 32 33 34 33
21 23 23 25 24 24 25 26 28 29 29 22 22 23 28 29 29 29 29 29 30 30 29 30 31 32 33
21 21 19 18 20 25 25 26 25 28 24 25 28 31 36 34 33 30 28 28 28 29 31 34 34 34 34
20 15 17 21 25 23 23 20 8 15 26 32 28 33 35 34 32 29 31 33 33 33 33 33 32 31 32
20 22 24 27 31 27 24 20 24 27 29 35 25 30 33 33 31 32 33 33 32 31 31 31 31 30 30
22 25 27 26 25 23 24 28 26 24 22 21 24 27 32 31 33 31 29 28 28 28 29 30 31 33 34
22 21 21 23 25 25 25 19 19 22 24 23 20 27 29 33 20 24 24 27 29 31 33 34 33 33 33
20 25 27 25 20 18 20 21 18 15 6 7 21 17 10 20 21 27 35 33 31 31 32 32 32 32 29
27 28 26 24 24 24 22 21 20 21 31 23 20 25 18 18 21 25 31 37 36 35 33 31 30 27 28
22 21 23 30 29 27 27 27 27 30 36 32 21 24 26 26 22 30 27 32 33 35 34 33 27 26 26
18 22 27 29 27 29 29 30 32 32 31 30 31 32 29 28 28 34 32 29 34 32 30 31 33 31 30
22 25 26 23 26 26 28 29 27 33 29 26 26 29 31 30 30 33 34 20 29 32 31 31 31 30 30
23 21 21 22 25 27 26 25 21 27 32 32 27 28 31 33 31 34 33 31 33 32 28 31 33 30 32
24 22 23 24 25 25 23 22 23 25 27 31 31 30 28 26 28 33 34 32 36 33 30 27 32 28 29
23 25 24 25 23 25 24 22 23 24 28 29 26 22 12 13 32 23 26 31 31 31 28 27 30 34 28
Wind_Direction
282 299 304 311 316 320 322 319 317 313 303 301 299 297 295 293 290 288 287 287 286 284 284 282 282 281 281
287 298 302 310 315 317 319 319 317 310 303 300 296 294 294 293 290 291 290 287 286 286 285 283 281 279 279
286 297 302 310 316 317 316 313 311 308 300 296 293 296 298 295 293 292 287 284 284 282 280 279 278 277 276
288 294 299 308 312 309 309 308 302 306 300 293 298 300 300 299 295 291 286 284 283 282 279 277 276 274 273
284 289 294 300 308 309 298 299 300 306 306 305 311 305 306 306 303 295 289 288 286 282 280 279 277 274 272
291 283 288 304 306 300 293 300 306 313 314 303 305 297 297 299 300 291 290 287 286 283 280 278 277 274 272
297 299 298 305 304 293 289 284 294 300 305 298 299 287 298 300 298 292 290 288 286 283 280 278 278 277 274
296 297 298 299 295 294 296 297 295 297 297 288 300 288 294 292 292 288 287 287 287 285 282 280 280 280 277
293 290 291 295 296 299 297 302 302 300 293 276 288 297 297 288 289 293 283 287 286 285 283 283 281 279 276
297 298 303 306 305 296 296 289 292 305 292 271 295 303 303 294 291 288 294 295 289 287 285 283 280 280 276
308 308 312 315 315 315 308 297 280 270 280 291 287 289 278 288 292 290 288 289 291 290 288 283 280 275 273
311 308 311 318 321 319 315 308 296 282 298 292 275 279 279 284 287 293 289 288 284 281 283 288 282 274 269
306 306 313 316 317 320 320 316 310 305 300 299 280 279 276 275 280 286 294 293 287 281 282 282 281 279 276
308 311 314 312 310 315 309 310 306 304 305 301 292 284 274 274 274 280 284 279 286 283 281 279 275 268 263
318 310 307 307 307 315 308 303 292 299 304 308 303 294 280 272 275 276 278 280 281 279 280 279 278 269 261
318 313 306 305 306 309 305 297 293 295 295 299 305 307 302 292 264 264 275 277 281 282 276 269 277 276 270
321 318 309 306 305 304 302 298 295 294 293 296 298 297 298 297 300 290 278 284 284 280 274 269 274 279 275